{"data":{"norad_id":69395,"intl_designator":"2026-124P","name":"QIANFAN-178","alt_names":[],"object_type":"PAYLOAD","status":"ACTIVE","operator":null,"country":"PRC","launch_date":"2026-06-04","launch_site_code":"TAISC","launch_vehicle":null,"mission":null,"orbit_class":"UNKNOWN","rcs_meters":null,"size_class":null,"mass_kg":null,"dimensions":null,"purposes":[],"wikipedia_slug":null,"has_3d_model":false,"image_url":null,"decayed_at":null,"tle_current":{"epoch":"2026-09-20T05:08:53.950848Z","epoch_age_seconds":59468,"freshness":"FRESH","line1":"1 69395U 26124P   26263.21451332  .00000106  00000+0  14480-3 0  9993","line2":"2 69395  89.0011 351.9456 0001841 102.0874 258.0484 13.51026405 14915","mean_motion":13.51026405,"eccentricity":0.0001841,"inclination_deg":89.0011,"raan_deg":351.9456,"arg_perigee_deg":102.0874,"mean_anomaly_deg":258.0484,"bstar":0.0001448,"rev_number":1491,"period_min":106.58562961247,"perigee_km":1067.1136341377,"apogee_km":1069.855480195,"semimajor_km":7446.6215571664,"source":"CELESTRAK","updated_at":"2026-09-20T09:00:24.862320Z"}}}